Location: Sungai Jaoh
(2.9167°N, 113.9167°E)
Time: 06:16:48
(UTC+00:00)

Cosmos 1484 Rocket - Pass Details

Date: 30 November 2020
Orbit: 506 x 558 km, 97.4° (Epoch: 25 January)

Event Time Altitude Azimuth Distance (km) Brightness Sun altitude
Exits shadow 21:00:44 42° 288° (WNW) 762 3.0 -17.9°
Maximum altitude 21:00:53 42° 281° (WNW) 759 3.0 -17.9°
Drops below altitude 10° 21:04:32 10° 210° (SSW) 1,786 5.3 -17.0°
Sets 21:06:45 0° 203° (SSW) 2,688 6.3 -16.5°
